[TLELIST] Archives

 

[TLELIST] Current TLEs

September 6th 2023 PDT

HST 1 20580U 90037B 23248.89502844 .00004337 00000-0 22297-3 0 9995 2 20580 28.4690 90.7187 0002302 163.6016 222.4769 15.13934175633966 ISS (ZARYA) 1 25544U 98067A 23249.39062500 .00012585 00000-0 22602-3 0 9991 2 25544 51.6409 286.2542 0005418 36.6688 150.3950 15.50258823414383 CXO 1 25867U 99040B 23249.93059061 .00000780 00000-0 00000-0 0 9998 2 25867 37.3262 186.3522 9052989 271.0184 0.6128 0.37812662 13483 ...Continue Reading

[TLELIST] Current TLEs

September 5th 2023 PDT

HST 1 20580U 90037B 23247.33912164 .00004687 00000-0 24186-3 0 9990 2 20580 28.4687 101.0821 0002379 147.2308 22.0632 15.13921654633465 ISS (ZARYA) 1 25544U 98067A 23248.47196132 .00012218 00000-0 21985-3 0 9994 2 25544 51.6413 290.8095 0005847 29.0362 67.6770 15.50234635414243 CXO 1 25867U 99040B 23249.93059061 .00000780 00000-0 00000-0 0 9998 2 25867 37.3262 186.3522 9052989 271.0184 0.6128 0.37812662 13483 ...Continue Reading

[TLELIST] Current TLEs

September 4th 2023 PDT

HST 1 20580U 90037B 23247.06882949 .00004913 00000-0 25405-3 0 9994 2 20580 28.4687 102.8824 0002403 144.3252 348.9146 15.13919767633687 ISS (ZARYA) 1 25544U 98067A 23247.37589708 .00013253 00000-0 23800-3 0 9995 2 25544 51.6436 296.2402 0005316 27.6068 68.1570 15.50207774414077 CXO 1 25867U 99040B 23247.28572158 .00000737 00000-0 00000-0 0 9993 2 25867 37.3222 186.7543 9052116 270.6810 0.5877 0.37811217 13473 ...Continue Reading

[TLELIST] [TLELIST] Current TLEs

September 4th 2023 PDT

HST 1 20580U 90037B 23247.06882949 .00004913 00000-0 25405-3 0 9994 2 20580 28.4687 102.8824 0002403 144.3252 348.9146 15.13919767633687 ISS (ZARYA) 1 25544U 98067A 23247.37589708 .00013253 00000-0 23800-3 0 9995 2 25544 51.6436 296.2402 0005316 27.6068 68.1570 15.50207774414077 CXO 1 25867U 99040B 23247.28572158 .00000737 00000-0 00000-0 0 9993 2 25867 37.3222 186.7543 9052116 270.6810 0.5877 0.37811217 13473 ...Continue Reading

[TLELIST] Current TLEs

September 4th 2023 PDT

HST 1 20580U 90037B 23247.06882949 .00004913 00000-0 25405-3 0 9994 2 20580 28.4687 102.8824 0002403 144.3252 348.9146 15.13919767633687 ISS (ZARYA) 1 25544U 98067A 23247.37589708 .00013253 00000-0 23800-3 0 9995 2 25544 51.6436 296.2402 0005316 27.6068 68.1570 15.50207774414077 CXO 1 25867U 99040B 23247.28572158 .00000737 00000-0 00000-0 0 9993 2 25867 37.3222 186.7543 9052116 270.6810 0.5877 0.37811217 13473 ...Continue Reading

[TLELIST] Current TLEs

September 3rd 2023 PDT

HST 1 20580U 90037B 23245.92750591 .00006398 00000-0 33392-3 0 9997 2 20580 28.4688 110.4847 0002456 132.6621 247.8859 15.13913284633255 ISS (ZARYA) 1 25544U 98067A 23246.40867597 .00011066 00000-0 20030-3 0 9995 2 25544 51.6418 301.0371 0005581 26.1813 68.2333 15.50177100413923 CXO 1 25867U 99040B 23247.28572158 .00000737 00000-0 00000-0 0 9993 2 25867 37.3222 186.7543 9052116 270.6810 0.5877 0.37811217 13473 ...Continue Reading

[TLELIST] Current TLEs

September 2nd 2023 PDT

HST 1 20580U 90037B 23244.88660223 .00004729 00000-0 24429-3 0 9990 2 20580 28.4688 117.4182 0002464 122.7794 333.4926 15.13899829633091 ISS (ZARYA) 1 25544U 98067A 23245.45833333 .00012197 00000-0 22014-3 0 9990 2 25544 51.6427 305.7430 0005245 24.1636 163.2662 15.50151869413776 CXO 1 25867U 99040B 23247.28572158 .00000737 00000-0 00000-0 0 9993 2 25867 37.3222 186.7543 9052116 270.6810 0.5877 0.37811217 13473 ...Continue Reading

[TLELIST] Current TLEs

September 1st 2023 PDT

HST 1 20580U 90037B 23244.10084052 .00004446 00000-0 22913-3 0 9997 2 20580 28.4689 122.6520 0002484 114.9282 10.4012 15.13892869633234 ISS (ZARYA) 1 25544U 98067A 23244.35101433 .00012543 00000-0 22636-3 0 9992 2 25544 51.6431 311.2283 0005359 20.4959 103.4633 15.50125068413600 CXO 1 25867U 99040B 23247.28572158 .00000737 00000-0 00000+0 0 9992 2 25867 37.3222 186.7543 9052116 270.6810 0.5877 0.37811217 24633 ...Continue Reading

[TLELIST] Current TLEs

August 31st 2023 PDT

HST 1 20580U 90037B 23243.04768778 .00004465 00000-0 23020-3 0 9994 2 20580 28.4689 129.6665 0002514 104.6886 29.5401 15.13884499633087 ISS (ZARYA) 1 25544U 98067A 23243.37885012 .00013798 00000-0 24834-3 0 9990 2 25544 51.6435 316.0465 0005235 16.7029 78.6103 15.50103742413451 CXO 1 25867U 99040B 23244.64313063 .00000839 00000-0 00000+0 0 9990 2 25867 37.3240 187.1513 9048633 270.3553 0.8228 0.37809184 24627 ...Continue Reading

[TLELIST] Current TLEs

August 30th 2023 PDT

HST 1 20580U 90037B 23241.47231183 .00004552 00000-0 23497-3 0 9999 2 20580 28.4688 140.1589 0002515 88.7514 82.6553 15.13870541632574 ISS (ZARYA) 1 25544U 98067A 23242.40853212 .00010338 00000-0 18838-3 0 9994 2 25544 51.6432 320.8583 0005038 14.4075 62.6383 15.50071852413302 CXO 1 25867U 99040B 23244.64313063 .00000839 00000-0 00000+0 0 9990 2 25867 37.3240 187.1513 9048633 270.3553 0.8228 0.37809184 24627 ...Continue Reading
  • This mailing list is a public mailing list - anyone may join or leave, at any time.
  • This mailing list is announce-only.

International Space Station (ISS) / Hubble Space Telescope (HST) / Chandra X-Ray Observatory Orbital Data via EMAIL

Privacy Policy:

Private list